This is the latest recevied weather packets stored in our database for station/object VK6HGR-1. If no packets are shown the sender has not sent any weather packets the latest 10 day(s).
| Time | Temp. | Humidity | Pressure | Rain* | Wind** | Luminosity | Snow |
|---|---|---|---|---|---|---|---|
| 1777608915 | 17.78° C | 46% | 1020 hPa | - | - | - | - |
| 1777608012 | 17.22° C | 48% | 1020.3 hPa | - | - | - | - |
| 1777607114 | 17.78° C | 48% | 1020.3 hPa | - | - | - | - |
| 1777606213 | 17.22° C | 49% | 1020.4 hPa | - | - | - | - |
| 1777605311 | 17.22° C | 50% | 1020.5 hPa | - | - | - | - |
| 1777604413 | 16.67° C | 51% | 1020.6 hPa | - | - | - | - |
| 1777603511 | 16.11° C | 51% | 1020.6 hPa | - | - | - | - |
| 1777602611 | 15.56° C | 53% | 1020.6 hPa | - | - | - | - |
| 1777601716 | 15.56° C | 53% | 1020.5 hPa | - | - | - | - |
| 1777600811 | 15° C | 55% | 1020.4 hPa | - | - | - | - |
| 1777599912 | 15° C | 57% | 1020.4 hPa | - | - | - | - |
| 1777599011 | 15° C | 55% | 1020.5 hPa | - | - | - | - |
| 1777598114 | 14.44° C | 57% | 1020.5 hPa | - | - | - | - |
| 1777597214 | 14.44° C | 60% | 1020.5 hPa | - | - | - | - |
| 1777596312 | 14.44° C | 62% | 1020.3 hPa | - | - | - | - |
| 1777595414 | 14.44° C | 65% | 1020.1 hPa | - | - | - | - |
| 1777594511 | 13.89° C | 67% | 1019.9 hPa | - | - | - | - |
| 1777593610 | 13.89° C | 67% | 1019.6 hPa | - | - | - | - |
| 1777592711 | 13.89° C | 69% | 1019.2 hPa | - | - | - | - |
| 1777591814 | 13.89° C | 69% | 1018.9 hPa | - | - | - | - |
| 1777590911 | 13.89° C | 69% | 1018.7 hPa | - | - | - | - |
| 1777590011 | 13.89° C | 71% | 1018.4 hPa | - | - | - | - |
| 1777589114 | 13.89° C | 72% | 1018.4 hPa | - | - | - | - |
| 1777588210 | 13.89° C | 74% | 1018.1 hPa | - | - | - | - |
| 1777587312 | 13.89° C | 74% | 1018 hPa | - | - | - | - |
* Rain since midnight (hover to see other rain measurements)
** Current wind speed in m/s (hover to see current wind gust speed)